[[{"header":{"parameterUnit":"m.s-1","parameterCategory":1,"la1":30.2992,"la2":30.254,"lo1":-89.0895,"lo2":-89.0443,"dy":0.0025,"dx":0.0025,"nx":19,"ny":19,"refTime":"2026-03-21T03:00:00:Z","depth":0,"parameterNumber":2,"parameterNumberName":"U-component_of_WINDS"},"data":[0,0,0,1.0934,1.0934,1.0975,1.0975,1.1011,1.1011,0,0,0,0,0,0,0,0,0,0,0,1.091,1.091,1.0934,1.0934,1.0975,1.0975,1.1011,1.1011,0,0,0,0,0,0,0,0,0,0,0,1.091,1.091,1.0909,1.0935,1.0975,1.0975,1.1011,1.0986,0,0,0,0,0,0,0,0,0,0,1.095,1.0915,1.091,1.0909,1.0935,1.0975,1.0975,1.0985,1.0988,1.0985,0,1.0977,0,1.0995,1.1012,1.1012,0,0,0,1.0943,1.0913,1.0935,1.0909,1.0935,1.0975,1.0959,1.0987,1.0989,1.0988,1.0978,1.098,1.0995,1.1012,1.1012,1.0963,1.0963,0,0,1.0941,1.0911,1.0933,1.0936,1.0927,1.0958,1.096,1.0989,1.0976,1.0978,1.0981,1.0996,1.1012,1.1012,1.0964,1.0963,0,0,0,1.0929,1.0909,1.093,1.0934,1.0943,1.0959,1.0962,1.0975,1.0985,1.0981,1.0996,1.1012,1.1012,1.0965,1.0964,1.0901,0,0,0,1.0928,1.0901,1.0929,1.0911,1.0942,1.0959,1.0947,1.0983,1.0987,1.0996,1.1012,1.1013,1.0965,1.0964,1.0905,1.0876,0,0,0,1.0911,1.09,1.0902,1.0909,1.0925,1.0959,1.0971,1.0984,1.0995,1.1012,1.1013,1.0966,1.0964,1.0908,1.0881,1.0855,0,0,0,1.0885,1.0844,1.09,1.0862,1.0925,1.0921,1.0971,1.097,1.0977,1.1012,1.0965,1.0964,1.0909,1.0884,1.0858,1.0826,1.081,0,0,1.0817,1.0835,1.0815,1.0866,1.0844,1.0917,1.0887,1.0922,1.0952,1.0958,1.0958,1.0904,1.0881,1.0855,1.0734,1.0721,0,0,0,1.0784,1.0768,1.077,1.0775,1.0802,1.0823,1.0866,1.088,1.0887,1.0949,1.0889,1.0876,1.0862,1.0848,1.0838,1.0828,1.0956,1.0957,1.0957,1.0641,1.0683,1.0654,1.0701,1.0706,1.0753,1.0762,1.0789,1.0828,1.0814,1.0815,1.0736,1.0719,1.0711,1.07,1.0803,1.0803,1.0803,1.0802,1.0545,1.053,1.0588,1.0579,1.0624,1.0618,1.0664,1.0693,1.0695,1.0738,1.0728,1.0769,1.0696,1.0688,1.0798,1.0799,1.08,1.08,1.08,1.0454,1.0455,1.0474,1.0489,1.0496,1.0548,1.0547,1.059,1.0629,1.0619,1.0626,1.0627,1.0633,1.062,1.062,1.0619,1.0619,1.0619,1.0619,1.0352,1.0376,1.037,1.0398,1.041,1.043,1.0481,1.0493,1.0518,1.0549,1.0549,1.059,1.0681,1.0702,1.0615,1.0615,1.0616,1.0616,1.0617,1.0234,1.0269,1.026,1.0271,1.031,1.0316,1.0372,1.0395,1.0412,1.0411,1.0457,1.0518,1.0539,1.0548,1.0566,1.0448,1.0448,1.0448,1.0448,1.0157,1.0173,1.0175,1.0191,1.0212,1.0263,1.0254,1.0296,1.0344,1.0358,1.0382,1.041,1.0417,1.0434,1.0446,1.0463,1.0321,1.0321,1.0321,1.0087,1.0108,1.009,1.0138,1.0174,1.0204,1.0198,1.0215,1.0278,1.0317,1.037,1.0375,1.0421,1.0433,1.0469,1.0486,1.0518,0,0]},{"header":{"parameterUnit":"m.s-1","parameterCategory":1,"la1":30.2992,"la2":30.254,"lo1":-89.0895,"lo2":-89.0443,"dy":0.0025,"dx":0.0025,"nx":19,"ny":19,"refTime":"2026-03-21T03:00:00:Z","depth":0,"parameterNumber":3,"parameterNumberName":"V-component_of_WINDS"},"data":[0,0,0,4.5365,4.5367,4.5476,4.5476,4.5597,4.5598,0,0,0,0,0,0,0,0,0,0,0,4.5326,4.5327,4.5365,4.5367,4.5476,4.5476,4.5596,4.5598,0,0,0,0,0,0,0,0,0,0,0,4.5326,4.5326,4.5327,4.5368,4.5476,4.5476,4.5596,4.552,0,0,0,0,0,0,0,0,0,0,4.5417,4.5375,4.5326,4.5327,4.5368,4.5476,4.5476,4.5516,4.5525,4.5541,0,4.5558,0,4.558,4.5605,4.5605,0,0,0,4.5371,4.5368,4.5405,4.5327,4.5369,4.5475,4.5428,4.5521,4.553,4.5552,4.5559,4.5564,4.5582,4.5606,4.5606,4.5699,4.57,0,0,4.5365,4.534,4.5398,4.541,4.5398,4.5424,4.5431,4.5527,4.5532,4.556,4.5567,4.5584,4.5606,4.5607,4.5699,4.5699,0,0,0,4.5345,4.5336,4.537,4.5405,4.5426,4.5428,4.5435,4.5528,4.5541,4.5569,4.5585,4.5607,4.5608,4.5699,4.5699,4.5691,0,0,0,4.5342,4.5325,4.5367,4.5353,4.5424,4.5479,4.5433,4.5534,4.5546,4.5585,4.5607,4.5609,4.5699,4.5699,4.569,4.569,0,0,0,4.5321,4.5322,4.5336,4.5352,4.5398,4.5478,4.5498,4.5538,4.5556,4.5605,4.561,4.5699,4.5699,4.569,4.569,4.5709,0,0,0,4.529,4.5323,4.5336,4.5379,4.5397,4.5474,4.5497,4.5554,4.5595,4.5607,4.5699,4.5699,4.569,4.5689,4.5708,4.5721,4.5724,0,0,4.5318,4.5326,4.5354,4.5368,4.5437,4.5459,4.5525,4.5583,4.5607,4.5666,4.5669,4.5691,4.569,4.5709,4.575,4.5752,0,0,0,4.5354,4.5374,4.5397,4.5438,4.5487,4.5528,4.558,4.5602,4.5654,4.5635,4.5703,4.5703,4.5715,4.5722,4.5725,4.5737,4.5702,4.5701,4.5701,4.5356,4.5391,4.5439,4.5487,4.5526,4.5581,4.5615,4.5653,4.5672,4.5687,4.5705,4.5726,4.5734,4.5736,4.5748,4.5714,4.5714,4.5714,4.5714,4.5401,4.5434,4.5464,4.5522,4.5556,4.5603,4.5657,4.5669,4.5716,4.5715,4.5727,4.5724,4.5737,4.575,4.5714,4.5714,4.5714,4.5714,4.5714,4.5407,4.5429,4.5459,4.5524,4.5568,4.5613,4.5659,4.5687,4.5713,4.5726,4.5748,4.5748,4.5752,4.5735,4.5735,4.5735,4.5735,4.5735,4.5735,4.5401,4.5435,4.5473,4.553,4.5561,4.5605,4.5662,4.5692,4.5732,4.5748,4.5749,4.5766,4.5733,4.5724,4.5736,4.5736,4.5736,4.5736,4.5736,4.5434,4.5432,4.549,4.5522,4.5592,4.5635,4.5672,4.5731,4.5759,4.578,4.5796,4.5767,4.5775,4.5774,4.5767,4.5789,4.5789,4.5789,4.5789,4.5439,4.5448,4.5515,4.5564,4.5615,4.5656,4.5717,4.5761,4.5805,4.5824,4.5825,4.5818,4.5815,4.5825,4.5823,4.5817,4.5851,4.5851,4.5851,4.5462,4.5478,4.5526,4.5575,4.5632,4.5679,4.5738,4.579,4.5839,4.5854,4.584,4.5837,4.5826,4.5821,4.5835,4.5831,4.582,0,0]}]]